Location: Santa Cristina
(46.5667°N, 11.7167°E)
Time: 06:01:16
(UTC+00:00)

IRS-1C - Pass Details

Date: 21 April 2021
Orbit: 816 x 817 km, 98.9° (Epoch: 15 May)

Event Time Altitude Azimuth Distance (km) Brightness Sun altitude
Rises 02:14:15 0° 15° (NNE) 3,355 8.3 -18.7°
Reaches altitude 10° 02:16:36 10° 16° (NNE) 2,418 7.4 -18.4°
Maximum altitude 02:21:59 84° 105° (ESE) 827 4.1 -17.7°
Enters shadow 02:25:36 21° 193° (SSW) 1,746 5.4 -17.3°
